[Iaude] MPEC V37: 2023 VV [a=1.07,e=0.27,i=5.5,H=23.4]
    mpec at marsden.cfa.harvard.edu 
    mpec at marsden.cfa.harvard.edu
       
    Sat Nov  4 18:36:44 EDT 2023
    
    
  
M.P.E.C. 2023-V37                              Issued 2023 November 4, 22:30 UT
     The Minor Planet Electronic Circulars contain information on unusual
         minor planets, routine data on comets and natural satellites,
         and occasional editorial announcements.  They are published
    on behalf of Division F of the International Astronomical Union by the
          Minor Planet Center, Smithsonian Astrophysical Observatory,
                          Cambridge, MA 02138, U.S.A.
			  
             Prepared using the Tamkin Foundation Computer Network
                              MPC at CFA.HARVARD.EDU
            URL https://www.minorplanetcenter.net/    ISSN 1523-6714
                                    2023 VV                                     
Observations:
     K23V00V*1C2023 11 01.14620518 31 23.330+53 13 52.00               VEV037G96
     K23V00V 1C2023 11 01.15656318 31 56.370+53 16 58.50         18.81GVEV037G96
     K23V00V 1C2023 11 01.16172018 32 13.090+53 18 31.70               VEV037G96
     K23V00V  C2023 11 04.30003821 32 48.468+59 46 47.89         18.91cVEV037T05
     K23V00V  C2023 11 04.30328121 32 57.682+59 46 40.12         18.94cVEV037T05
     K23V00V  C2023 11 04.30869521 33 12.605+59 46 25.25         18.97cVEV037T05
     K23V00V  C2023 11 04.32109221 33 47.035+59 45 50.33         19.04cVEV037T05
     K23V00V KC2023 11 04.75810821 54 29.158+59 23 18.96         18.4 GVEV037J95
     K23V00V KC2023 11 04.76110721 54 36.797+59 23 08.92         18.5 GVEV037J95
     K23V00V KC2023 11 04.76284721 54 41.258+59 23 03.30         18.8 GVEV037J95
     K23V00V KC2023 11 04.76469821 54 45.929+59 22 56.71         18.9 GVEV037J95
     K23V00V KC2023 11 04.80194 21 56 13.59 +59 20 42.2          17.7 GXEV037G02
     K23V00V KC2023 11 04.80648 21 56 25.10 +59 20 24.4          17.8 GXEV037G02
     K23V00V KC2023 11 04.81082 21 56 35.96 +59 20 05.7          17.9 GXEV037G02
     K23V00V KC2023 11 04.81536 21 56 47.46 +59 19 48.3          18.1 GXEV037G02
     K23V00V KB2023 11 04.86594221 58 58.99 +59 16 57.2          18.7 GXEV037958
     K23V00V KB2023 11 04.87180721 59 13.58 +59 16 32.8          19.3 GXEV037958
     K23V00V KB2023 11 04.87767621 59 28.20 +59 16 06.4          18.8 GXEV037958
     K23V00V KC2023 11 04.90712 22 00 36.08 +59 13 05.0          18.7 VqEV037L04
     K23V00V KC2023 11 04.91021 22 00 43.89 +59 12 50.3          18.9 VqEV037L04
     K23V00V KC2023 11 04.91264 22 00 49.97 +59 12 39.0          18.8 VqEV037L04
     K23V00V KC2023 11 04.91564 22 00 57.47 +59 12 24.5          18.7 VqEV037L04
Observer details:
958 Observatoire de Dax.  Observer P. Dupouy.  0.50-m f/4.5 Reflector + CMO.
G02 KYSUCE Observatory, Kysucke Nove Mesto.  Observer M. Urbanik.  0.40-m
    f/6.8 Corrected Dall-Kirkham + CCD.
G96 Mt. Lemmon Survey.  Observer J. B. Fazekas.  Measurers E. C. Beshore, D.
    Fay, J. B. Fazekas, D. C. Fuls, A. R. Gibbs, A. D. Grauer, H. Groeller, J.
    K. Hogan, R. A. Kowalski, S. M. Larson, G. J. Leonard, D. Rankin, R. L.
    Seaman, F. C. Shelly, K. W. Wierzchos.  1.5-m reflector + 10K CCD.
J95 Great Shefford.  Observer P. Birtwhistle.  0.41-m f/6.3 Schmidt-Cassegrain
    + CCD.
L04 ROASTERR-1 Observatory, Cluj-Napoca.  Observer L. Hudin.  0.3-m f/5
    reflector + CCD.
T05 ATLAS-HKO, Haleakala.  Observers L. Denneau, R. Siverd, J. Tonry, H.
    Weiland.  Measurers L. Denneau, N. Erasmus, A. Fitzsimmons, A. Lawrence,
    J. Robinson, R. Siverd, J. Tonry, H. Weiland.  0.5-m Reflector + CCD.
Orbital elements:
2023 VV                                                  Earth MOID = 0.0208 AU
Epoch 2023 Sept. 13.0 TT = JDT 2460200.5                Veres                   
M  15.91301              (2000.0)            P               Q                  
n   0.89558267     Peri.  287.19121     +0.59897599     +0.80011392             
a   1.0659388      Node    19.71164     -0.69343976     +0.53846502             
e   0.2728101      Incl.    5.50106     -0.40046105     +0.26433525             
P   1.10           H   23.48          G   0.15           U   7                  
Residuals in seconds of arc
231101 G96  0.9+  0.3+    231104 J95  0.1-  0.1-    231104 958  0.9+  0.6+
231101 G96  0.9-  0.4-    231104 J95  0.2+  0.3+    231104 958  1.8+  0.7-
231101 G96  0.1+  0.0     231104 J95  0.1-  0.1+    231104 L04  0.2-  0.2+
231104 T05  0.3+  0.7-    231104 G02  0.4-  0.0     231104 L04  0.2+  0.0
231104 T05  1.5+  0.3+    231104 G02  0.1+  0.4+    231104 L04  0.0   0.1+
231104 T05  0.1-  0.4+    231104 G02  0.5-  0.8-    231104 L04  0.3-  0.3-
231104 T05  1.6-  0.8+    231104 G02  0.1+  0.2+
231104 J95  0.1-  0.3-    231104 958  0.3+  0.1+
Ephemeris:
2023 VV                  a,e,i = 1.07, 0.27, 6                   q = 0.7751
Date    TT    R. A. (2000) Decl.     Delta      r    Elong.  Phase     V
2023 10 05    14 08 50.3 -20 30 32   0.1513  0.8678    26.7   148.8    27.3
...
2023 10 20    14 47 13.0 -08 35 32   0.06543 0.9338    17.5   161.3    28.8
...
2023 10 28    16 05 21.8 +23 01 28   0.03286 0.9713    46.1   132.5    22.0
...
2023 11 03    20 21 37.3 +59 22 36   0.03421 0.9996   101.6    76.5    18.8
2023 11 04    21 17 51.4 +59 52 22   0.03719 1.0044   108.5    69.5    18.8
2023 11 05    22 04 46.9 +59 07 13   0.04066 1.0091   114.3    63.6    18.8
...
2023 11 11    00 14 34.0 +49 49 34   0.06691 1.0372   133.2    44.1    19.4
...
2023 11 19    01 02 04.4 +42 16 59   0.1080  1.0739   140.4    35.9    20.3
...
2023 12 04    01 37 47.9 +35 57 11   0.1947  1.1389   138.5    35.0    21.7
M. P. C. Staff               (C) Copyright 2023 MPC           M.P.E.C. 2023-V37
    
    
More information about the Iaude
mailing list